Location: Bayo Town
(6.3736°N, 10.7292°W)
Time: 14:04:04
(UTC+00:00)

Daily predictions for brighter satellites

Satellite Brightness Start Highest point End
(mag) Time Altitude Azimuth Time Altitude Azimuth Time Altitude Azimuth
Milstar 3 Cent rocket 3.7 19:01:41 10° NW 19:08:35 66° NNE 19:23:29 10° ESE
Cosmos 1758 3.5 19:07:00 10° S 19:10:58 53° E 19:14:56 10° NNE
Cosmos 2315 Rocket 4.0 19:11:57 10° S 19:18:11 72° E 19:24:28 10° N
Okean-O 2.6 19:14:07 10° SSE 19:18:33 89° ENE 19:22:58 10° NNW
Aureole 3 3.8 19:17:48 10° SSE 19:20:56 33° E 19:24:39 10° NNE
Ariane H10 3.9 19:19:12 10° WSW 19:21:59 54° S 19:29:04 11° E
Meteor 2-16 Rocket 4.4 19:17:48 10° N 19:23:56 77° E 19:30:04 10° S
CZ-3B Rocket 1.6 19:19:56 10° WSW 19:24:34 78° NNW 19:28:17 10° ENE
ATLAS 5 CENTAUR R/B 1.6 19:21:37 10° S 19:25:35 46° ESE 19:29:27 10° NE
Cosmos 1892 Rocket 3.5 19:22:21 10° N 19:26:49 76° E 19:31:14 10° S
CZ-4 R/B 1.3 19:22:58 10° SSE 19:26:50 61° ENE 19:30:38 10° N
Cosmos 304 Rocket 3.9 19:22:19 10° N 19:26:55 50° ENE 19:31:33 10° SSE
SL-24 R/B - RUBIN 2 3.9 19:23:48 10° S 19:28:19 55° ESE 19:33:27 10° NNE
Cosmos 1939 Rocket 2.9 19:28:55 10° SSE 19:32:51 55° ENE 19:36:43 10° N
Hubble Space Telescope 3.3 19:31:35 10° WNW 19:34:21 17° NNW 19:37:06 10° NNE
Cosmos 2297 4.4 19:30:24 10° NNE 19:35:26 32° ENE 19:40:28 10° SE
Cosmos 614 Rocket 4.4 19:31:26 10° S 19:36:16 40° ESE 19:41:07 10° NNE
USA 234 3.4 19:30:22 10° NNE 19:36:53 79° NW 19:43:26 10° SW
ATLAS 2AS CENTAUR RB 4.2 14:55:27 10° WSW 19:38:04 69° N 19:44:15 14° ENE
Cosmos 2278 Rocket 3.5 19:33:40 10° NW 19:38:59 43° WSW 19:44:19 10° S
CSL-04 Debris 4.3 19:34:13 10° SSE 19:39:33 54° ENE 19:44:52 10° N
Cosmos 1110 Rocket 3.9 19:36:30 10° NNW 19:41:40 86° ENE 19:46:49 10° SSE
Cosmos 1626 2.3 19:39:25 10° N 19:42:58 48° E 19:46:33 10° SSE
deb Ariane 3.3 19:37:01 10° W 19:45:48 85° N 19:47:42 24° E
Cosmos 1953 2.1 19:42:45 10° S 19:46:43 82° E 19:50:39 10° N
Cosmos 407 Rocket 3.8 19:42:45 10° S 19:47:41 42° ESE 19:52:32 10° NNE
Cosmos 1709 Rocket 4.0 19:42:16 10° N 19:48:11 54° E 19:54:08 10° SSE
Cosmos 2228 3.8 19:45:17 10° SSE 19:48:56 28° E 19:52:36 10° NNE
OAO 2 Rocket 3.4 19:46:18 10° NW 19:51:24 62° NE 19:54:05 27° ESE
Cosmos 1606 Rocket 4.1 19:47:31 10° SSE 19:51:29 34° E 19:55:27 10° NNE
Cosmos 1943 Rocket 3.8 19:56:07 10° NNE 19:58:15 16° NE 19:58:15 16° NE
ARGOS Delta rocket 4.2 20:00:36 22° SE 20:03:31 46° ENE 20:08:28 10° N
CSL-04 Rocket 3.7 20:01:23 10° S 20:06:44 77° WSW 20:12:01 10° NNW
GPS 2-04 Rocket1 4.1 20:03:24 10° WSW 20:07:04 36° NW 20:09:48 16° NNE
CZ-2C R/B 3.7 20:02:47 10° NNE 20:07:16 55° ESE 20:11:41 10° S
CZ-2C R/B 4.4 20:10:32 22° NE 20:10:32 22° NE 20:12:49 10° NNE
GPS 2-18 Rocket1 3.5 20:11:44 10° W 20:15:24 52° NNW 20:15:54 48° N
H-2A R/B 2.6 20:18:32 39° ENE 20:18:32 39° ENE 20:22:43 10° N
ATLAS 3B CENTAUR R/B 1.4 20:11:13 10° WNW 20:18:06 71° NNE 20:18:27 66° ENE
Cosmos 1302 Rocket 3.9 20:12:51 10° N 20:18:08 85° ENE 20:21:09 26° SSE
SJ-11-01 4.2 20:17:41 56° ESE 20:18:15 62° ENE 20:22:52 10° N
NATO 3D Rocket 4.3 20:13:20 10° W 20:19:01 62° SSW 20:22:15 34° SE
Cosmos 1023 Rocket 4.3 20:14:16 10° S 20:19:28 72° ESE 20:24:38 10° NNE
Atlas Centaur 2 4.3 20:17:51 10° WSW 20:21:48 17° SW 20:25:10 10° S
GPS 2-12 Rocket1 4.1 20:20:08 10° SW 20:23:45 34° S 20:23:45 34° S
Cosmos 1726 3.9 20:22:49 10° SSW 20:26:10 32° W 20:29:32 10° NNW
ARGOS 4.2 20:36:41 31° NNE 20:36:41 31° NNE 20:39:35 10° N
Delta 2 Rocket 4.0 20:35:23 10° NW 20:39:07 60° NW 20:39:07 60° NW
Ariane Rocket 3.4 20:51:06 59° NW 20:51:06 59° NW 20:55:25 10° NNW
CZ-3A R/B 3.6 20:39:18 10° WNW 20:57:54 41° N 20:58:55 39° NNE
Ariane H10+ 4.2 20:58:59 10° WSW 21:02:34 16° SSW 21:02:34 16° SSW
ATLAS 5 CENTAUR R/B 4.0 21:06:21 10° NW 21:12:09 37° NNE 21:14:55 34° NE
